PBO Station Position Time Series. Reference Frame : NAM14
Format Version,1.1.1
4-character ID,P339
Station name,Valentine_CN2007
Begin Date, 2007-04-26
End Date, 2023-06-26
Release Date, 2023-06-27
Reference position, 40.0341107056 North Latitude, -122.6682504796 East Longitude, 979.56833 meters elevation,
Date, North (mm), East (mm), Vertical (mm), North Std. Deviation (mm), East Std. Deviation (mm),              Vertical Std. Deviation (mm), Quality,
2007-04-26,0.00, 0.00, 0.00, 1.98, 1.56, 7.07, repro,
2007-04-27,-0.04, 0.99, 5.43, 2.02, 1.61, 7.24, repro,
2007-04-28,1.39, 0.94, 0.89, 2.01, 1.60, 7.17, repro,
2007-04-29,-0.07, -0.52, -0.03, 2.00, 1.55, 7.04, repro,
2007-04-30,-0.19, -0.92, 0.67, 2.00, 1.56, 7.11, repro,
2007-05-01,-0.27, 0.37, -2.21, 1.98, 1.55, 7.07, repro,
2007-05-02,0.43, -1.96, -8.19, 2.09, 1.60, 7.50, repro,
2007-05-03,1.87, -1.16, -0.31, 2.13, 1.60, 7.44, repro,
2007-05-04,0.62, 1.56, -5.79, 1.99, 1.54, 7.04, repro,
2007-05-05,0.61, 0.65, -0.37, 2.03, 1.60, 7.25, repro,
2007-05-06,-0.07, 0.93, -5.83, 2.00, 1.55, 7.11, repro,
2007-05-07,0.50, 0.01, 0.60, 2.00, 1.56, 7.14, repro,
2007-05-08,1.10, 2.36, 6.84, 2.08, 1.57, 7.35, repro,
2007-05-09,1.57, -0.09, 2.54, 2.06, 1.64, 7.45, repro,
2007-05-10,0.54, 0.29, 7.41, 2.15, 1.67, 7.64, repro,
2007-05-11,0.42, 0.83, 1.24, 2.10, 1.62, 7.51, repro,
2007-05-12,1.42, 0.70, 2.06, 2.02, 1.56, 7.16, repro,
2007-05-13,1.68, 0.81, 1.51, 2.06, 1.60, 7.30, repro,
2007-05-14,0.02, 0.54, 1.73, 2.04, 1.57, 7.19, repro,
2007-05-15,-0.07, 1.40, 6.79, 2.02, 1.55, 7.07, repro,
2007-05-16,1.23, -0.36, 4.84, 2.00, 1.54, 7.01, repro,
2007-05-17,0.62, 0.02, -0.41, 2.04, 1.58, 7.25, repro,
2007-05-18,-0.84, -0.64, 3.30, 2.11, 1.66, 7.53, repro,
2007-05-19,0.31, 1.78, 1.73, 2.07, 1.60, 7.31, repro,
2007-05-20,0.45, 0.79, 9.56, 2.09, 1.62, 7.33, repro,
2007-05-21,2.37, -0.85, 3.15, 2.04, 1.58, 7.19, repro,
2007-05-22,1.45, -0.73, 7.52, 2.03, 1.57, 7.10, repro,
2007-05-23,0.57, -1.02, 5.16, 2.05, 1.59, 7.25, repro,
2007-05-24,1.04, 0.71, 5.04, 2.25, 1.78, 8.08, repro,
2007-05-25,0.33, -0.11, 2.70, 2.03, 1.56, 7.13, repro,
2007-05-26,0.75, 1.29, 3.77, 2.05, 1.59, 7.16, repro,
2007-05-27,0.65, 1.50, 10.80, 2.03, 1.56, 7.07, repro,
2007-05-28,0.72, 1.06, 5.93, 2.04, 1.58, 7.17, repro,
2007-05-29,0.87, 0.57, 5.84, 2.03, 1.56, 7.12, repro,
2007-05-30,0.51, 1.04, -1.69, 2.08, 1.57, 7.24, repro,
2007-05-31,-0.48, 1.25, 6.71, 2.07, 1.60, 7.23, repro,
2007-06-01,0.78, 1.79, 5.50, 2.03, 1.56, 7.09, repro,
2007-06-02,1.16, 0.95, 6.69, 2.01, 1.56, 7.10, repro,
2007-06-03,0.94, 0.12, 12.95, 2.03, 1.59, 7.27, repro,
2007-06-04,-0.16, 1.85, 8.09, 2.01, 1.55, 7.06, repro,
2007-06-05,0.84, 2.99, -0.61, 2.08, 1.57, 7.24, repro,
2007-06-06,3.03, -1.42, 16.58, 2.03, 1.57, 7.11, repro,
2007-06-07,1.86, 0.21, 9.72, 2.01, 1.56, 7.06, repro,
2007-06-08,0.41, 0.02, 4.15, 2.01, 1.56, 7.08, repro,
2007-06-09,1.44, 0.99, 0.11, 2.04, 1.60, 7.25, repro,
2007-06-10,0.99, -1.82, 3.20, 2.04, 1.58, 7.25, repro,
2007-06-11,1.24, 2.63, 12.42, 2.07, 1.66, 7.37, repro,
2007-06-12,1.28, 0.04, 8.27, 2.03, 1.59, 7.18, repro,
2007-06-13,1.70, 0.54, 3.03, 2.06, 1.60, 7.18, repro,
2007-06-14,2.71, 0.97, -2.10, 2.11, 1.66, 7.40, repro,
2007-06-15,0.26, 0.41, 5.60, 2.01, 1.56, 7.11, repro,
2007-06-16,-0.37, 1.32, 0.79, 2.01, 1.55, 7.04, repro,
2007-06-17,1.89, 0.23, 6.10, 2.01, 1.56, 7.11, repro,
2007-06-18,2.60, 1.38, 9.08, 2.01, 1.55, 7.08, repro,
2007-06-19,-0.03, 0.98, -7.20, 2.01, 1.55, 7.06, repro,
2007-06-20,1.54, 0.81, 0.37, 2.01, 1.56, 7.10, repro,
2007-06-21,0.45, -0.02, -1.56, 2.01, 1.56, 7.11, repro,
2007-06-22,2.94, 3.73, -1.43, 2.07, 1.62, 7.34, repro,
2007-06-23,1.74, 3.68, 5.72, 2.01, 1.56, 7.10, repro,
2007-06-24,0.46, 0.98, 3.13, 2.05, 1.60, 7.28, repro,
2007-06-25,2.06, 1.01, -0.56, 2.01, 1.56, 7.10, repro,
2007-06-26,0.81, 0.91, -4.01, 2.01, 1.55, 7.11, repro,
2007-06-27,1.13, 0.71, -6.67, 2.02, 1.56, 7.14, repro,
2007-06-28,1.87, 0.91, 3.49, 2.02, 1.56, 7.20, repro,
2007-06-29,2.64, 2.23, 2.76, 2.01, 1.55, 7.09, repro,
2007-06-30,1.05, 1.42, 1.91, 2.02, 1.57, 7.14, repro,
2007-07-01,1.25, 0.70, -0.40, 2.01, 1.56, 7.11, repro,
2007-07-02,1.75, 1.69, 4.89, 2.02, 1.56, 7.13, repro,
2007-07-03,1.61, 0.97, -0.22, 2.00, 1.56, 7.13, repro,
2007-07-04,1.67, 1.09, -3.62, 2.00, 1.56, 7.12, repro,
2007-07-05,0.55, 0.99, 1.65, 2.01, 1.56, 7.07, repro,
2007-07-06,2.07, 0.62, -0.33, 2.05, 1.63, 7.34, repro,
2007-07-07,1.02, 0.57, 9.02, 2.23, 1.71, 8.00, repro,
2007-07-08,0.70, 2.80, 6.78, 2.02, 1.56, 7.11, repro,
2007-07-09,1.90, 1.92, 14.58, 2.16, 1.72, 7.84, repro,
2007-07-10,1.94, 0.33, 0.33, 2.01, 1.55, 7.05, repro,
2007-07-11,1.11, 1.55, 0.53, 2.02, 1.56, 7.12, repro,
2007-07-12,1.29, 1.90, 1.11, 2.06, 1.62, 7.33, repro,
2007-07-13,0.83, 2.56, 6.63, 2.05, 1.62, 7.29, repro,
2007-07-14,1.33, 1.58, 4.40, 2.03, 1.59, 7.14, repro,
2007-07-15,2.48, 1.31, 1.21, 2.04, 1.63, 7.29, repro,
2007-07-16,2.15, 0.47, 11.98, 2.01, 1.56, 7.10, repro,
2007-07-17,0.93, 1.16, 3.98, 2.02, 1.56, 7.14, repro,
2007-07-18,1.36, 2.22, 6.16, 2.20, 1.76, 8.05, repro,
2007-07-19,0.53, 1.45, 3.06, 2.10, 1.61, 7.48, repro,
2007-07-20,1.40, 1.15, 1.78, 2.02, 1.61, 7.19, repro,
2007-07-21,1.84, -0.45, 3.76, 2.08, 1.69, 7.43, repro,
2007-07-22,2.51, 1.33, 8.55, 2.03, 1.56, 7.13, repro,
2007-07-23,2.05, 0.78, 0.33, 2.07, 1.62, 7.38, repro,
2007-07-24,1.68, 2.20, 15.35, 2.08, 1.63, 7.38, repro,
2007-07-25,0.91, 1.46, 5.93, 2.05, 1.61, 7.28, repro,
2007-07-26,2.02, 1.98, 9.32, 1.99, 1.55, 7.01, repro,
2007-07-27,0.11, 2.03, 6.92, 2.00, 1.56, 7.07, repro,
2007-07-28,-0.92, 0.78, 7.56, 2.02, 1.57, 7.16, repro,
2007-07-29,0.51, 1.03, 10.19, 2.05, 1.62, 7.33, repro,
2007-07-30,-0.25, 0.78, 11.79, 2.01, 1.55, 7.02, repro,
2007-07-31,1.49, 0.94, 9.47, 2.02, 1.59, 7.23, repro,
2007-08-01,1.08, 1.24, 13.64, 1.99, 1.55, 7.00, repro,
2007-08-02,0.78, 2.80, 19.01, 2.00, 1.55, 7.05, repro,
2007-08-03,0.82, 0.61, 8.76, 2.01, 1.54, 7.03, repro,
2007-08-04,3.56, 1.47, 14.61, 2.02, 1.56, 7.08, repro,
2007-08-05,1.59, 0.05, 17.35, 2.07, 1.60, 7.19, repro,
2007-08-06,0.89, 1.57, 20.67, 2.03, 1.60, 7.23, repro,
2007-08-07,0.97, 1.28, 13.47, 2.01, 1.58, 7.11, repro,
2007-08-08,1.13, 1.22, 13.52, 1.98, 1.54, 6.96, repro,
2007-08-09,0.80, 0.58, 12.73, 2.02, 1.56, 7.14, repro,
2007-08-10,0.07, 0.24, 14.62, 2.00, 1.55, 7.05, repro,
2007-08-11,0.40, 0.57, 9.32, 2.00, 1.55, 7.02, repro,
2007-08-12,0.76, 2.40, 13.40, 1.98, 1.54, 6.94, repro,
2007-08-13,0.73, 0.92, 13.38, 1.98, 1.53, 6.91, repro,
2007-08-14,0.00, 2.11, 4.82, 2.11, 1.67, 7.42, repro,
2007-08-15,-0.34, 0.99, 7.25, 2.11, 1.66, 7.39, repro,
2007-08-16,-1.23, 0.02, 12.34, 2.09, 1.62, 7.30, repro,
2007-08-17,1.10, 0.83, 3.90, 2.11, 1.63, 7.48, repro,
2007-08-18,-0.12, 1.93, 9.81, 2.11, 1.63, 7.46, repro,
2007-08-19,1.54, 2.17, 10.97, 2.11, 1.64, 7.47, repro,
2007-08-20,0.12, -0.11, 18.34, 2.08, 1.60, 7.26, repro,
2007-08-21,1.51, 1.05, 8.27, 2.09, 1.60, 7.30, repro,
2007-08-22,3.06, 0.73, 4.40, 2.11, 1.61, 7.37, repro,
2007-08-23,0.80, 0.33, 13.31, 2.05, 1.56, 7.10, repro,
2007-08-24,1.19, 1.60, 14.49, 2.15, 1.64, 7.47, repro,
2007-08-25,1.04, 0.52, 6.28, 2.08, 1.62, 7.32, repro,
2007-08-26,2.13, -0.26, 15.96, 2.13, 1.66, 7.52, repro,
2007-08-27,0.96, 0.10, 10.19, 2.13, 1.66, 7.56, repro,
2007-08-28,-0.06, 1.02, 8.09, 2.09, 1.62, 7.34, repro,
2007-08-29,1.46, 1.92, 7.46, 2.10, 1.63, 7.38, repro,
2007-08-30,0.28, 2.37, 5.46, 2.13, 1.67, 7.57, repro,
2007-08-31,2.30, 0.10, 15.36, 2.10, 1.64, 7.38, repro,
2007-09-01,0.28, -1.07, 14.79, 2.18, 1.69, 7.66, repro,
2007-09-02,1.81, -1.12, 8.64, 2.10, 1.62, 7.39, repro,
2007-09-03,0.52, -1.17, 11.66, 2.10, 1.62, 7.36, repro,
2007-09-04,1.89, 1.02, 9.93, 2.12, 1.64, 7.45, repro,
2007-09-05,0.34, -0.48, 17.04, 2.14, 1.63, 7.45, repro,
2007-09-06,0.39, 0.01, 18.01, 2.09, 1.61, 7.32, repro,
2007-09-07,0.19, -0.21, 15.00, 2.10, 1.62, 7.36, repro,
2007-09-08,1.37, -0.22, 13.33, 2.13, 1.65, 7.51, repro,
2007-09-09,0.33, 0.31, 14.22, 2.19, 1.71, 7.78, repro,
2007-09-10,0.17, 0.37, 12.94, 2.15, 1.68, 7.64, repro,
2007-09-11,0.44, 1.27, 11.90, 2.12, 1.64, 7.41, repro,
2007-09-12,1.26, -0.51, 11.17, 2.15, 1.67, 7.58, repro,
2007-09-13,0.49, 0.59, 13.85, 2.23, 1.67, 7.72, repro,
2007-09-14,0.58, 0.27, 11.79, 2.16, 1.67, 7.65, repro,
2007-09-15,0.11, 0.04, 16.10, 2.20, 1.66, 7.68, repro,
2007-09-16,1.05, -0.34, 13.04, 2.13, 1.64, 7.44, repro,
2007-09-17,1.82, 0.54, 14.60, 2.22, 1.77, 7.91, repro,
2007-09-18,1.11, -0.67, 10.88, 2.05, 1.62, 7.26, repro,
2007-09-19,0.69, 0.17, 14.04, 2.02, 1.55, 7.04, repro,
2007-09-20,0.80, -0.31, 11.61, 2.03, 1.56, 7.07, repro,
2007-09-21,-0.02, -0.20, 14.44, 2.15, 1.64, 7.50, repro,
2007-09-22,-0.17, 0.49, 18.27, 2.07, 1.58, 7.24, repro,
2007-09-23,-0.15, 1.02, 18.68, 2.10, 1.60, 7.25, repro,
2007-09-24,0.38, 1.31, 13.80, 2.14, 1.62, 7.41, repro,
2007-09-25,-0.27, 0.75, 5.93, 2.10, 1.58, 7.32, repro,
2007-09-26,0.68, 0.40, 17.64, 2.06, 1.56, 7.15, repro,
2007-09-27,-0.95, 1.00, 11.52, 2.10, 1.60, 7.39, repro,
2007-09-28,0.07, 0.18, 17.09, 2.07, 1.65, 7.40, repro,
2007-09-29,-0.16, -0.20, 15.27, 2.09, 1.65, 7.35, repro,
2007-09-30,-0.41, 0.01, 16.23, 2.09, 1.65, 7.36, repro,
2007-10-01,1.58, 1.85, 16.95, 2.11, 1.65, 7.43, repro,
2007-10-02,0.46, 1.28, 16.98, 2.24, 1.74, 7.84, repro,
2007-10-03,1.39, 2.48, 16.68, 2.10, 1.63, 7.42, repro,
2007-10-04,0.35, 2.34, 20.38, 2.11, 1.64, 7.47, repro,
2007-10-05,-0.08, 0.24, 21.88, 2.12, 1.71, 7.64, repro,
2007-10-06,0.13, 0.59, 18.33, 2.08, 1.65, 7.39, repro,
2007-10-07,0.45, 1.53, 13.56, 2.15, 1.66, 7.51, repro,
2007-10-08,-0.47, 2.74, 16.58, 2.35, 1.75, 8.19, repro,
2007-10-09,-1.25, 0.70, 10.61, 2.26, 1.82, 8.10, repro,
2007-10-10,-0.99, 1.23, 7.73, 2.24, 1.70, 7.85, repro,
2007-10-11,0.92, 1.49, 9.87, 2.07, 1.65, 7.32, repro,
2007-10-12,-0.09, 1.23, 22.40, 2.08, 1.65, 7.40, repro,
2007-10-13,-0.68, 1.03, 14.15, 2.04, 1.59, 7.23, repro,
2007-10-14,0.08, 0.79, 15.89, 2.04, 1.59, 7.24, repro,
2007-10-15,0.59, 1.64, 12.42, 2.15, 1.72, 7.54, repro,
2007-10-16,-0.49, 1.50, 21.81, 2.04, 1.60, 7.25, repro,
2007-10-17,0.88, -0.52, 15.96, 2.02, 1.59, 7.20, repro,
2007-10-18,1.20, 2.31, 20.27, 2.05, 1.60, 7.28, repro,
2007-10-19,-7.67, 1.24, 4.44, 2.02, 1.56, 7.14, repro,
2007-10-20,0.35, -4.34, 22.84, 2.04, 1.58, 7.25, repro,
2007-10-21,1.59, 1.02, 10.31, 2.03, 1.59, 7.21, repro,
2007-10-22,-0.13, 1.31, 12.56, 2.04, 1.59, 7.27, repro,
2007-10-23,0.59, 2.22, 8.26, 2.09, 1.66, 7.42, repro,
2007-10-24,0.35, 1.21, 10.46, 2.14, 1.69, 7.60, repro,
2007-10-25,0.16, 2.02, 12.17, 2.05, 1.60, 7.28, repro,
2007-10-26,2.29, 0.69, 9.45, 2.06, 1.63, 7.31, repro,
2007-10-27,0.97, 0.01, 6.59, 2.04, 1.59, 7.23, repro,
2007-10-28,0.98, 1.07, 10.73, 2.03, 1.60, 7.23, repro,
2007-10-29,0.46, 2.37, 11.27, 2.07, 1.65, 7.43, repro,
2007-10-30,0.88, 2.10, 11.51, 2.05, 1.60, 7.31, repro,
2007-10-31,0.96, 1.52, 8.54, 2.03, 1.59, 7.23, repro,
2007-11-01,0.27, 1.04, 15.27, 2.00, 1.55, 7.02, repro,
2007-11-02,0.86, 0.44, 9.21, 2.01, 1.57, 7.08, repro,
2007-11-03,0.04, 0.99, 9.86, 1.99, 1.57, 7.04, repro,
2007-11-04,0.74, 1.18, 11.93, 2.00, 1.56, 7.03, repro,
2007-11-05,1.23, 1.31, 6.84, 2.00, 1.56, 7.06, repro,
2007-11-06,1.10, 1.28, 7.14, 2.06, 1.64, 7.37, repro,
2007-11-07,1.18, 0.66, 8.20, 1.99, 1.55, 7.04, repro,
2007-11-08,-0.15, 1.05, 14.04, 2.03, 1.60, 7.16, repro,
2007-11-09,0.24, -0.24, 7.09, 2.03, 1.59, 7.12, repro,
2007-11-10,2.70, 0.64, 10.29, 2.01, 1.57, 7.12, repro,
2007-11-11,1.97, 1.17, 12.13, 1.99, 1.54, 7.01, repro,
2007-11-12,2.82, 0.15, 9.85, 2.02, 1.56, 7.16, repro,
2007-11-13,3.17, 1.56, 8.64, 2.01, 1.55, 7.10, repro,
2007-11-14,1.51, 1.43, 5.29, 2.07, 1.63, 7.23, repro,
2007-11-15,3.29, 2.09, 7.66, 2.03, 1.57, 7.12, repro,
2007-11-16,2.28, 0.46, 11.92, 2.00, 1.56, 7.10, repro,
2007-11-17,0.97, 2.47, 10.51, 2.01, 1.56, 7.12, repro,
2007-11-18,2.84, 1.86, 12.76, 2.01, 1.57, 7.15, repro,
2007-11-19,-1.75, -3.52, 11.87, 2.03, 1.61, 7.26, repro,
2007-11-20,1.47, -0.32, 4.29, 2.01, 1.60, 7.17, repro,
2007-11-21,1.12, 0.02, 7.05, 2.01, 1.61, 7.24, repro,
2007-11-22,1.58, 0.12, 1.49, 2.00, 1.57, 7.10, repro,
2007-11-23,1.61, 0.26, 4.10, 2.03, 1.65, 7.34, repro,
2007-11-24,1.90, -0.26, 7.79, 2.08, 1.66, 7.34, repro,
2007-11-25,1.26, -0.41, 8.16, 2.03, 1.61, 7.21, repro,
2007-11-26,1.60, -0.20, 0.23, 2.12, 1.69, 7.50, repro,
2007-11-27,3.41, -0.91, 5.28, 2.09, 1.66, 7.42, repro,
2007-11-28,0.34, -0.64, 2.51, 2.07, 1.66, 7.30, repro,
2007-11-29,0.28, 0.27, 1.49, 2.10, 1.65, 7.52, repro,
2007-11-30,2.39, -1.09, 2.69, 2.18, 1.72, 7.64, repro,
2007-12-01,1.25, -0.55, 12.35, 2.16, 1.77, 7.79, repro,
2007-12-02,-0.38, 1.92, 2.31, 2.13, 1.78, 7.83, repro,
2007-12-03,-2.83, -1.77, -0.68, 2.22, 1.76, 8.07, repro,
2007-12-04,-1.89, -2.30, -3.00, 2.27, 1.89, 8.35, repro,
2007-12-05,2.49, 2.12, 8.53, 2.17, 1.82, 8.05, repro,
2007-12-06,3.12, 0.30, 12.66, 2.33, 1.95, 8.60, repro,
2007-12-07,0.66, 0.76, 11.19, 2.19, 1.85, 7.99, repro,
2007-12-08,1.17, 0.04, 10.79, 2.16, 1.75, 7.61, repro,
2007-12-09,2.79, 0.38, 3.25, 2.39, 2.12, 9.01, repro,
2007-12-10,1.35, 0.07, 3.91, 2.12, 1.73, 7.56, repro,
2007-12-11,0.13, -0.36, 3.35, 2.14, 1.71, 7.62, repro,
2007-12-12,2.76, -0.41, 2.77, 2.23, 1.77, 7.92, repro,
2007-12-13,2.23, -0.31, 0.16, 2.10, 1.63, 7.46, repro,
2007-12-14,1.53, 0.70, 6.99, 2.07, 1.59, 7.29, repro,
2007-12-15,1.40, 0.50, 6.31, 2.07, 1.60, 7.36, repro,
2007-12-16,1.17, -0.08, 2.26, 2.05, 1.59, 7.28, repro,
2007-12-17,0.94, 0.80, 9.12, 2.12, 1.64, 7.39, repro,
2007-12-18,0.23, -0.19, 4.66, 2.07, 1.63, 7.38, repro,
2007-12-19,0.15, -0.99, 2.45, 2.09, 1.63, 7.41, repro,
2007-12-20,1.13, -2.41, 2.01, 2.06, 1.59, 7.33, repro,
2007-12-21,2.41, 0.11, 9.58, 2.20, 1.78, 8.03, repro,
2007-12-22,2.76, -0.09, 2.70, 2.15, 1.70, 7.75, repro,
2007-12-23,0.32, 1.71, 3.67, 2.10, 1.68, 7.53, repro,
2007-12-24,1.66, -0.37, 16.05, 2.21, 1.84, 8.25, repro,
2007-12-25,1.58, 0.64, 5.15, 2.08, 1.63, 7.41, repro,
2007-12-26,2.53, -0.98, 8.48, 2.08, 1.62, 7.40, repro,
2007-12-27,1.28, 0.47, 10.68, 2.11, 1.64, 7.49, repro,
2007-12-28,1.12, 0.81, 12.07, 2.11, 1.65, 7.52, repro,
2007-12-29,1.14, 0.13, 13.66, 2.09, 1.60, 7.41, repro,
2007-12-30,2.84, -0.41, 12.34, 2.13, 1.65, 7.62, repro,
2007-12-31,2.90, -0.40, 0.73, 2.05, 1.57, 7.22, repro,
2008-01-01,1.18, 1.03, -0.15, 2.05, 1.57, 7.21, repro,
2008-01-02,0.09, 0.46, -1.26, 2.07, 1.56, 7.20, repro,
2008-01-03,-1.31, 0.19, 8.53, 2.09, 1.59, 7.37, repro,
2008-01-04,-1.21, -2.64, 6.70, 2.08, 1.59, 7.36, repro,
2008-01-05,-3.38, -2.19, 7.47, 2.10, 1.59, 7.40, repro,
2008-01-06,1.76, 0.92, 14.00, 2.02, 1.54, 7.13, repro,
2008-01-07,-0.04, 0.56, 6.02, 2.02, 1.54, 7.12, repro,
2008-01-08,-0.83, 0.40, 4.52, 2.09, 1.55, 7.27, repro,
2008-01-09,0.34, 1.18, 7.32, 2.08, 1.56, 7.30, repro,
2008-01-10,3.25, 2.02, 10.87, 2.08, 1.61, 7.42, repro,
2008-01-11,0.68, 1.81, 7.02, 2.02, 1.55, 7.14, repro,
2008-01-12,1.57, 1.69, 1.79, 2.01, 1.55, 7.11, repro,
2008-01-13,0.79, 0.72, -3.49, 2.04, 1.55, 7.16, repro,
2008-01-14,0.58, 0.75, 2.73, 2.02, 1.56, 7.12, repro,
2008-01-15,1.09, 1.25, 6.23, 2.01, 1.54, 7.05, repro,
2008-01-16,0.28, 0.38, 0.87, 2.05, 1.57, 7.21, repro,
2008-01-17,-0.56, -0.52, 2.86, 2.05, 1.57, 7.20, repro,
2008-01-18,0.98, 0.68, 3.39, 2.03, 1.59, 7.26, repro,
2008-01-19,1.19, 0.59, -1.37, 2.03, 1.55, 7.13, repro,
2008-01-20,1.29, 0.46, 2.08, 2.00, 1.54, 7.04, repro,
2008-01-21,-0.35, 0.25, 4.65, 2.01, 1.55, 7.08, repro,
2008-01-22,0.71, 0.77, 3.52, 2.01, 1.55, 7.09, repro,
2008-01-23,-0.32, 1.84, 4.56, 2.01, 1.56, 7.11, repro,
2008-01-24,-0.32, 0.55, 7.46, 2.01, 1.54, 7.06, repro,
2008-01-25,1.50, 1.47, -1.04, 2.01, 1.55, 7.07, repro,
2008-01-26,0.39, 1.49, 0.86, 2.00, 1.55, 7.08, repro,
2008-01-27,1.48, 1.75, 2.11, 2.01, 1.56, 7.12, repro,
2008-01-28,-1.26, -2.12, 6.99, 2.02, 1.56, 7.15, repro,
2008-01-29,0.52, 1.26, 3.64, 2.10, 1.67, 7.45, repro,
2008-01-30,0.62, -0.64, 0.42, 2.12, 1.62, 7.44, repro,
2008-01-31,-2.05, 0.63, -2.26, 2.02, 1.56, 7.13, repro,
2008-02-01,-0.86, 0.36, -0.51, 2.00, 1.55, 7.06, repro,
2008-02-02,-0.65, 1.86, 0.78, 2.00, 1.55, 7.06, repro,
2008-02-03,0.58, -0.27, -3.68, 2.00, 1.55, 7.07, repro,
2008-02-04,1.29, 0.46, -0.89, 2.00, 1.54, 7.05, repro,
2008-02-05,0.10, 1.22, -0.58, 2.05, 1.62, 7.24, repro,
2008-02-06,0.67, 0.53, -1.13, 2.04, 1.62, 7.27, repro,
2008-02-07,3.41, -0.13, -4.29, 2.04, 1.59, 7.25, repro,
2008-02-08,2.11, -0.12, 0.77, 2.00, 1.56, 7.12, repro,
2008-02-09,-0.22, 1.88, -2.12, 2.01, 1.55, 7.09, repro,
2008-02-10,0.42, 1.58, 0.18, 2.02, 1.54, 7.06, repro,
2008-02-11,0.53, 1.30, 3.76, 2.00, 1.54, 7.05, repro,
2008-02-12,1.14, 1.85, 2.37, 2.04, 1.60, 7.17, repro,
2008-02-13,0.78, 0.78, 3.57, 2.00, 1.56, 7.08, repro,
2008-02-14,0.36, 0.45, 1.47, 2.00, 1.55, 7.07, repro,
2008-02-15,0.09, 0.57, -1.12, 2.03, 1.59, 7.17, repro,
2008-02-16,0.36, 1.05, 0.41, 2.01, 1.54, 7.06, repro,
2008-02-17,0.31, 2.00, 0.38, 2.00, 1.55, 7.03, repro,
2008-02-18,0.28, 1.20, 2.30, 2.04, 1.61, 7.16, repro,
2008-02-19,-0.39, 0.58, 2.72, 2.00, 1.56, 7.10, repro,
2008-02-20,-0.22, 1.53, 1.74, 2.00, 1.56, 7.06, repro,
2008-02-21,-0.87, 0.22, 7.17, 2.01, 1.55, 7.07, repro,
2008-02-22,-0.52, 1.51, 8.51, 2.01, 1.55, 7.11, repro,
2008-02-23,-0.30, 2.41, -0.50, 2.00, 1.56, 7.09, repro,
2008-02-24,-1.75, 0.30, 0.83, 2.00, 1.56, 7.06, repro,
2008-02-25,0.71, 1.51, -3.38, 2.00, 1.55, 7.08, repro,
2008-02-26,-0.85, 1.43, -4.30, 2.01, 1.55, 7.08, repro,
2008-02-27,0.48, 1.02, -4.35, 2.06, 1.59, 7.24, repro,
2008-02-28,0.86, 1.01, 0.06, 2.04, 1.59, 7.25, repro,
2008-02-29,1.36, 0.48, -0.21, 2.00, 1.56, 7.08, repro,
2008-03-01,-1.68, -3.71, -5.71, 2.01, 1.56, 7.07, repro,
2008-03-02,-0.86, 1.42, -3.36, 2.03, 1.59, 7.19, repro,
2008-03-03,0.36, 0.30, -4.41, 2.02, 1.55, 7.11, repro,
2008-03-04,0.91, 1.56, -5.24, 2.02, 1.55, 7.11, repro,
2008-03-05,0.78, 1.61, -2.24, 2.07, 1.66, 7.52, repro,
2008-03-06,0.03, 0.77, -5.03, 2.03, 1.59, 7.29, repro,
2008-03-07,-0.64, 0.81, -2.51, 2.00, 1.55, 7.03, repro,
2008-03-08,0.83, 0.35, -2.78, 2.10, 1.60, 7.56, repro,
2008-03-09,-0.30, 0.92, 3.16, 2.04, 1.59, 7.33, repro,
2008-03-10,0.83, 1.57, -2.99, 2.02, 1.55, 7.13, repro,
2008-03-11,2.37, 1.74, 3.49, 2.00, 1.56, 7.07, repro,
2008-03-12,0.79, 0.27, 1.43, 1.99, 1.56, 7.04, repro,
2008-03-13,-1.15, 4.98, 7.72, 2.04, 1.59, 7.33, repro,
2008-03-14,2.22, 1.13, 1.77, 2.04, 1.59, 7.33, repro,
2008-03-15,1.23, -0.06, 3.34, 2.02, 1.55, 7.12, repro,
2008-03-16,-0.05, -0.39, 4.40, 2.05, 1.59, 7.26, repro,
2008-03-17,2.27, -0.51, -3.37, 2.14, 1.71, 7.82, repro,
2008-03-18,2.69, -0.46, -6.34, 2.06, 1.62, 7.40, repro,
2008-03-19,0.39, 1.46, 5.90, 2.03, 1.57, 7.18, repro,
2008-03-20,0.11, 0.76, 5.67, 2.03, 1.58, 7.22, repro,
2008-03-21,1.69, -0.63, -0.42, 2.06, 1.61, 7.39, repro,
2008-03-22,1.65, -0.05, -3.29, 2.05, 1.59, 7.28, repro,
2008-03-23,0.62, 0.17, -8.06, 2.03, 1.58, 7.21, repro,
2008-03-24,1.71, -0.98, -2.07, 2.03, 1.57, 7.19, repro,
2008-03-25,0.97, 0.54, 2.29, 2.12, 1.65, 7.53, repro,
2008-03-26,0.07, 1.39, 12.54, 2.08, 1.62, 7.38, repro,
2008-03-27,1.71, 1.11, -6.38, 2.13, 1.70, 7.64, repro,
2008-03-28,2.30, 0.49, 0.90, 2.05, 1.59, 7.23, repro,
2008-03-29,1.82, 1.11, 2.71, 2.03, 1.55, 7.18, repro,
2008-03-30,1.04, 0.02, 3.35, 2.03, 1.54, 7.12, repro,
2008-03-31,1.11, -0.19, -1.41, 2.02, 1.55, 7.15, repro,
2008-04-01,0.54, -0.06, 0.71, 2.03, 1.55, 7.15, repro,
2008-04-02,1.15, -0.20, 1.48, 2.08, 1.56, 7.31, repro,
2008-04-03,0.94, -0.28, 0.81, 2.05, 1.55, 7.19, repro,
2008-04-04,2.12, -0.14, -0.84, 2.03, 1.54, 7.15, repro,
2008-04-05,2.05, 0.16, 1.89, 2.04, 1.60, 7.29, repro,
2008-04-06,1.88, 0.73, 3.46, 2.03, 1.55, 7.15, repro,
2008-04-07,-0.14, -0.86, 6.18, 2.03, 1.55, 7.17, repro,
2008-04-08,-0.39, -0.94, 4.93, 2.04, 1.55, 7.18, repro,
2008-04-09,-0.97, 0.56, 8.21, 2.03, 1.56, 7.23, repro,
2008-04-10,0.86, -0.19, -0.40, 2.02, 1.55, 7.19, repro,
2008-04-11,-0.14, -0.31, -1.88, 2.03, 1.55, 7.19, repro,
2008-04-12,-0.19, -0.06, -1.41, 2.02, 1.54, 7.14, repro,
2008-04-13,-0.37, -0.18, -0.19, 2.08, 1.59, 7.50, repro,
2008-04-14,-2.39, -2.23, -2.48, 2.15, 1.70, 7.75, repro,
2008-04-15,2.46, -1.84, 6.70, 2.05, 1.60, 7.29, repro,
2008-04-16,-0.52, -0.76, 4.85, 2.06, 1.59, 7.27, repro,
2008-04-17,-0.28, 0.58, 3.68, 2.04, 1.54, 7.19, repro,
2008-04-18,-0.72, -0.99, -1.50, 2.04, 1.55, 7.20, repro,
2008-04-19,-0.41, 0.74, 11.03, 2.06, 1.57, 7.34, repro,
2008-04-20,-0.20, 0.24, 8.73, 2.04, 1.55, 7.26, repro,
2008-04-21,-0.89, -0.47, 3.05, 2.02, 1.54, 7.16, repro,
2008-04-22,-1.22, 0.63, 0.50, 2.04, 1.54, 7.19, repro,
2008-04-23,-0.90, -1.54, -1.17, 2.12, 1.63, 7.57, repro,
2008-04-24,0.59, 1.18, -2.12, 2.07, 1.58, 7.37, repro,
2008-04-25,-1.09, 0.40, 3.29, 2.06, 1.56, 7.32, repro,
2008-04-26,-0.91, -0.39, -7.78, 2.11, 1.57, 7.34, repro,
2008-04-27,0.10, 0.03, -3.70, 2.12, 1.58, 7.39, repro,
2008-04-28,-2.90, 2.34, 9.16, 2.13, 1.60, 7.52, repro,
2008-04-29,0.05, 0.91, 13.65, 2.21, 1.61, 7.69, repro,
2008-04-30,1.57, -2.85, 3.36, 2.15, 1.63, 7.55, repro,
2008-05-01,0.07, -1.48, 2.85, 2.13, 1.63, 7.56, repro,
2008-05-02,-2.04, 0.35, 5.79, 2.12, 1.62, 7.48, repro,
2008-05-03,-0.67, -0.22, 5.13, 2.10, 1.59, 7.41, repro,
2008-05-04,1.05, 0.06, 6.54, 2.06, 1.56, 7.30, repro,
2008-05-05,-1.01, -0.41, 9.05, 2.12, 1.61, 7.50, repro,
2008-05-06,0.16, 0.78, 0.41, 2.11, 1.60, 7.44, repro,
2008-05-07,1.95, -2.15, 8.00, 2.09, 1.57, 7.36, repro,
2008-05-08,0.29, -0.25, 2.53, 2.23, 1.66, 7.85, repro,
2008-05-09,0.86, -0.37, -1.36, 2.09, 1.58, 7.43, repro,
2008-05-10,-1.55, 2.17, 6.55, 2.11, 1.60, 7.45, repro,
2008-05-11,-0.11, 0.06, 13.40, 2.10, 1.59, 7.44, repro,
2008-05-12,-0.36, -1.08, 11.53, 2.12, 1.59, 7.44, repro,
2008-05-13,0.16, 0.05, 6.18, 2.08, 1.58, 7.39, repro,
2008-05-14,1.66, -0.06, 5.89, 2.09, 1.58, 7.39, repro,
2008-05-15,-0.09, 0.88, 2.04, 2.07, 1.56, 7.33, repro,
2008-05-16,-0.21, 1.47, 0.14, 2.07, 1.56, 7.30, repro,
2008-05-17,0.34, 0.18, 6.86, 2.10, 1.59, 7.39, repro,
2008-05-18,-0.86, 0.23, 12.46, 2.12, 1.60, 7.48, repro,
2008-05-19,-0.29, 0.21, 10.76, 2.06, 1.57, 7.38, repro,
2008-05-20,0.68, 1.75, 9.70, 2.09, 1.59, 7.49, repro,
2008-05-21,2.17, -2.62, 9.15, 2.05, 1.56, 7.32, repro,
2008-05-22,1.03, 0.28, 14.93, 2.09, 1.63, 7.52, repro,
2008-05-23,0.11, -0.00, 12.95, 2.07, 1.59, 7.40, repro,
2008-05-24,-1.32, 0.23, 8.45, 2.07, 1.56, 7.34, repro,
2008-05-25,-0.48, 0.64, 11.71, 2.08, 1.57, 7.40, repro,
2008-05-26,-1.30, 1.91, 8.21, 2.05, 1.58, 7.34, repro,
2008-05-27,-0.79, 1.15, 7.93, 2.05, 1.55, 7.25, repro,
2008-05-28,0.02, 0.98, 2.50, 2.05, 1.57, 7.30, repro,
2008-05-29,0.08, 0.86, 1.88, 2.11, 1.61, 7.46, repro,
2008-05-30,0.16, 1.22, 4.65, 2.05, 1.56, 7.29, repro,
2008-05-31,1.11, 0.90, 5.75, 2.06, 1.55, 7.30, repro,
2008-06-01,-0.32, 1.14, 7.05, 2.05, 1.55, 7.25, repro,
2008-06-02,0.85, -0.01, 9.96, 2.04, 1.55, 7.24, repro,
2008-06-03,0.41, 2.68, -2.79, 2.13, 1.64, 7.66, repro,
2008-06-04,0.75, -0.48, 11.16, 2.10, 1.60, 7.42, repro,
2008-06-05,0.26, 1.86, 10.61, 2.07, 1.56, 7.42, repro,
2008-06-06,2.80, -1.52, 6.73, 2.08, 1.58, 7.36, repro,
2008-06-07,1.03, -0.61, 15.53, 2.12, 1.63, 7.56, repro,
2008-06-08,1.73, 0.80, 7.03, 2.10, 1.59, 7.42, repro,
2008-06-09,3.06, 0.94, 1.97, 2.11, 1.60, 7.47, repro,
2008-06-10,1.73, -1.46, 10.86, 2.06, 1.55, 7.30, repro,
2008-06-11,-0.03, 0.81, 2.19, 2.07, 1.55, 7.31, repro,
2008-06-12,0.36, 1.27, 7.00, 2.07, 1.58, 7.40, repro,
2008-06-13,1.55, 1.42, 3.62, 2.05, 1.56, 7.29, repro,
2008-06-14,2.16, 2.44, 0.08, 2.11, 1.59, 7.42, repro,
2008-06-15,2.05, -0.60, 2.85, 2.13, 1.59, 7.47, repro,
2008-06-16,1.89, -0.18, 5.26, 2.05, 1.55, 7.24, repro,
2008-06-17,-0.18, 2.48, 11.28, 2.07, 1.56, 7.32, repro,
2008-06-18,1.36, 1.70, 2.61, 2.06, 1.55, 7.31, repro,
2008-06-19,1.33, -1.33, 6.20, 2.07, 1.60, 7.40, repro,
2008-06-20,1.80, -0.39, 3.65, 2.06, 1.55, 7.28, repro,
2008-06-21,-0.94, -2.98, 3.96, 2.10, 1.57, 7.44, repro,
2008-06-22,2.04, -1.35, -5.20, 2.07, 1.55, 7.31, repro,
2008-06-23,1.96, 0.97, 8.56, 2.06, 1.54, 7.27, repro,
2008-06-24,2.09, 1.31, 7.34, 2.06, 1.54, 7.23, repro,
2008-06-25,0.66, 1.22, 6.76, 2.04, 1.54, 7.21, repro,
2008-06-26,2.06, 1.30, 12.22, 2.09, 1.61, 7.44, repro,